| time (UTC) | temp F | wind direction | speed MPH | gust MPH | rain 1hr in | rain 24hr in | rain mn in | humidity % | barometer mb |
| 20260507053045 | 79 | 46 | 2.0 | 9.0 | 0.00 | 0.00 | 0.00 | 83 | 1018.8 |
| 20260507051537 | 80 | 101 | 1.0 | 8.0 | 0.00 | 0.00 | 0.00 | 83 | 1018.9 |
| 20260507050035 | 80 | 94 | 0.0 | 14.0 | 0.00 | 0.00 | 0.00 | 83 | 1019.2 |
| 20260507044533 | 80 | 82 | 2.0 | 10.0 | 0.00 | 0.00 | 0.00 | 82 | 1019.4 |
| 20260507043035 | 80 | 86 | 7.0 | 11.0 | 0.00 | 0.00 | 0.00 | 82 | 1019.6 |
| 20260507041526 | 80 | 67 | 5.0 | 13.0 | 0.00 | 0.00 | 0.00 | 82 | 1019.8 |
| 20260507040023 | 80 | 80 | 3.0 | 15.0 | 0.00 | 0.00 | 0.00 | 82 | 1019.8 |
| 20260507034521 | 81 | 66 | 4.0 | 14.0 | 0.00 | 0.00 | 0.00 | 82 | 1019.9 |
| 20260507033021 | 81 | 132 | 1.0 | 8.0 | 0.00 | 0.00 | 0.00 | 82 | 1020.1 |
| 20260507031520 | 81 | 186 | 1.0 | 10.0 | 0.00 | 0.00 | 0.00 | 81 | 1020.3 |
| 20260507030020 | 81 | 103 | 0.0 | 13.0 | 0.00 | 0.00 | 0.00 | 82 | 1020.4 |
| 20260507024518 | 81 | 87 | 3.0 | 13.0 | 0.00 | 0.00 | 0.00 | 81 | 1020.4 |
| 20260507023017 | 81 | 71 | 6.0 | 13.0 | 0.00 | 0.00 | 0.00 | 82 | 1020.4 |
| 20260507021517 | 81 | 69 | 9.0 | 15.0 | 0.00 | 0.00 | 0.00 | 82 | 1020.4 |
| 20260507020016 | 81 | 81 | 3.0 | 15.0 | 0.00 | 0.00 | 0.00 | 81 | 1020.3 |
| 20260507014517 | 81 | 80 | 4.0 | 15.0 | 0.00 | 0.00 | 0.00 | 81 | 1020.3 |
| 20260507013014 | 81 | 72 | 7.0 | 16.0 | 0.00 | 0.00 | 0.00 | 81 | 1020.1 |
| 20260507011527 | 81 | 63 | 8.0 | 14.0 | 0.00 | 0.00 | 0.00 | 81 | 1020.1 |
| 20260507010014 | 82 | 61 | 7.0 | 15.0 | 0.00 | 0.00 | 0.00 | 81 | 1019.9 |
| 20260507004612 | 82 | 83 | 3.0 | 10.0 | 0.00 | 0.00 | 0.00 | 81 | 1019.6 |
| 20260507003017 | 81 | 96 | 2.0 | 9.0 | 0.00 | 0.00 | 0.00 | 81 | 1019.6 |
| 20260507001511 | 81 | 143 | 1.0 | 9.0 | 0.00 | 0.00 | 0.00 | 81 | 1019.4 |
| 20260507000010 | 81 | 111 | 0.0 | 10.0 | 0.00 | 0.00 | 0.00 | 80 | 1019.3 |
| 20260506234511 | 81 | 121 | 1.0 | 9.0 | 0.00 | 0.00 | 0.00 | 80 | 1019.1 |
| 20260506233012 | 81 | 144 | 2.0 | 9.0 | 0.00 | 0.00 | 0.00 | 80 | 1018.8 |
| 20260506231509 | 82 | 129 | 3.0 | 10.0 | 0.00 | 0.00 | 0.00 | 80 | 1018.6 |
| 20260506230008 | 82 | 84 | 2.0 | 7.0 | 0.00 | 0.00 | 0.00 | 79 | 1018.6 |
| 20260506224512 | 82 | 137 | 2.0 | 11.0 | 0.00 | 0.00 | 0.00 | 79 | 1018.4 |
| 20260506223007 | 82 | 82 | 1.0 | 10.0 | 0.00 | 0.00 | 0.00 | 78 | 1018.3 |
| 20260506221506 | 82 | 142 | 1.0 | 11.0 | 0.00 | 0.00 | 0.00 | 78 | 1018.1 |
| 20260506220005 | 82 | 142 | 2.0 | 5.0 | 0.00 | 0.00 | 0.00 | 77 | 1017.9 |
| 20260506214504 | 83 | 65 | 0.0 | 10.0 | 0.00 | 0.00 | 0.00 | 76 | 1017.9 |
| 20260506213004 | 84 | 101 | 0.0 | 9.0 | 0.00 | 0.00 | 0.00 | 74 | 1017.7 |
| 20260506211503 | 86 | 73 | 2.0 | 10.0 | 0.00 | 0.00 | 0.00 | 73 | 1017.6 |
| 20260506210004 | 87 | 72 | 4.0 | 15.0 | 0.00 | 0.00 | 0.00 | 72 | 1017.6 |
| 20260506204504 | 87 | 94 | 4.0 | 16.0 | 0.00 | 0.00 | 0.00 | 74 | 1017.4 |
| 20260506203003 | 88 | 62 | 7.0 | 13.0 | 0.00 | 0.00 | 0.00 | 71 | 1017.4 |
| 20260506201503 | 90 | 70 | 7.0 | 15.0 | 0.00 | 0.00 | 0.00 | 70 | 1017.5 |
| 20260506200059 | 90 | 63 | 5.0 | 17.0 | 0.00 | 0.00 | 0.00 | 68 | 1017.6 |
| 20260506194558 | 91 | 76 | 9.0 | 14.0 | 0.00 | 0.00 | 0.00 | 68 | 1017.8 |
| 20260506193057 | 90 | 76 | 8.0 | 15.0 | 0.00 | 0.00 | 0.00 | 70 | 1017.9 |
| 20260506191559 | 89 | 77 | 10.0 | 14.0 | 0.00 | 0.00 | 0.00 | 70 | 1018.1 |
| 20260506190057 | 86 | 59 | 9.0 | 16.0 | 0.00 | 0.00 | 0.00 | 74 | 1018.2 |
| 20260506184559 | 88 | 76 | 8.0 | 16.0 | 0.00 | 0.00 | 0.00 | 72 | 1018.4 |
| 20260506183058 | 90 | 74 | 9.0 | 13.0 | 0.00 | 0.00 | 0.00 | 70 | 1018.8 |
| 20260506181556 | 86 | 69 | 10.0 | 13.0 | 0.00 | 0.00 | 0.00 | 73 | 1019.0 |
| 20260506180053 | 88 | 63 | 9.0 | 13.0 | 0.00 | 0.00 | 0.00 | 73 | 1019.1 |
| 20260506174605 | 89 | 76 | 8.0 | 13.0 | 0.00 | 0.00 | 0.00 | 72 | 1019.2 |
| 20260506173055 | 90 | 69 | 9.0 | 13.0 | 0.00 | 0.00 | 0.00 | 70 | 1019.4 |
| 20260506171547 | 93 | 66 | 8.0 | 12.0 | 0.00 | 0.00 | 0.00 | 66 | 1019.6 |
| 20260506170043 | 92 | 73 | 8.0 | 13.0 | 0.00 | 0.00 | 0.00 | 69 | 1019.8 |
| 20260506164547 | 92 | 72 | 9.0 | 15.0 | 0.00 | 0.00 | 0.00 | 67 | 1020.0 |
| 20260506163055 | 91 | 74 | 7.0 | 17.0 | 0.00 | 0.00 | 0.00 | 68 | 1020.1 |
| 20260506161539 | 91 | 55 | 9.0 | 17.0 | 0.00 | 0.00 | 0.00 | 68 | 1020.2 |
| 20260506160036 | 91 | 67 | 10.0 | 15.0 | 0.00 | 0.00 | 0.00 | 70 | 1020.3 |
| 20260506154538 | 87 | 74 | 10.0 | 13.0 | 0.00 | 0.00 | 0.00 | 75 | 1020.5 |
| 20260506153034 | 86 | 74 | 8.0 | 12.0 | 0.00 | 0.00 | 0.00 | 77 | 1020.6 |
| 20260506151539 | 86 | 76 | 8.0 | 11.0 | 0.00 | 0.00 | 0.00 | 75 | 1020.7 |
| 20260506150032 | 88 | 61 | 8.0 | 12.0 | 0.00 | 0.00 | 0.00 | 72 | 1020.8 |
| 20260506144530 | 90 | 76 | 9.0 | 13.0 | 0.00 | 0.01 | 0.00 | 71 | 1020.8 |
| 20260506143028 | 87 | 69 | 7.0 | 15.0 | 0.00 | 0.01 | 0.00 | 73 | 1020.6 |
| 20260506141527 | 88 | 57 | 4.0 | 17.0 | 0.00 | 0.01 | 0.00 | 71 | 1020.6 |
| 20260506140029 | 89 | 69 | 8.0 | 17.0 | 0.00 | 0.01 | 0.00 | 70 | 1020.6 |
| 20260506134523 | 88 | 60 | 10.0 | 18.0 | 0.00 | 0.01 | 0.00 | 71 | 1020.7 |
| 20260506133023 | 88 | 196 | 5.0 | 19.0 | 0.00 | 0.01 | 0.00 | 73 | 1020.6 |
| 20260506131521 | 86 | 92 | 6.0 | 13.0 | 0.00 | 0.01 | 0.00 | 76 | 1020.6 |
| 20260506130016 | 85 | 92 | 8.0 | 13.0 | 0.00 | 0.01 | 0.00 | 77 | 1020.5 |
| 20260506124514 | 85 | 138 | 4.0 | 14.0 | 0.00 | 0.01 | 0.00 | 78 | 1020.6 |
| 20260506123011 | 84 | 80 | 3.0 | 9.0 | 0.00 | 0.01 | 0.00 | 78 | 1020.5 |
| 20260506121508 | 83 | 111 | 4.0 | 13.0 | 0.00 | 0.01 | 0.00 | 79 | 1020.4 |
| 20260506120010 | 82 | 204 | 1.0 | 11.0 | 0.00 | 0.01 | 0.00 | 80 | 1020.1 |
| 20260506114504 | 82 | 100 | 4.0 | 8.0 | 0.00 | 0.01 | 0.00 | 80 | 1020.0 |
| 20260506113001 | 82 | 225 | 2.0 | 13.0 | 0.00 | 0.01 | 0.00 | 81 | 1019.9 |
| 20260506111600 | 81 | 54 | 4.0 | 13.0 | 0.00 | 0.01 | 0.00 | 81 | 1019.8 |
| 20260506110103 | 81 | 65 | 5.0 | 16.0 | 0.00 | 0.01 | 0.00 | 82 | 1019.7 |
| 20260506104601 | 80 | 63 | 7.0 | 12.0 | 0.00 | 0.01 | 0.00 | 83 | 1019.5 |
| 20260506103056 | 80 | 70 | 3.0 | 14.0 | 0.00 | 0.01 | 0.00 | 83 | 1019.4 |
| 20260506101608 | 79 | 89 | 2.0 | 10.0 | 0.00 | 0.01 | 0.00 | 83 | 1019.2 |
| 20260506100049 | 79 | 152 | 0.0 | 9.0 | 0.00 | 0.01 | 0.00 | 83 | 1019.3 |
| 20260506094550 | 79 | 132 | 1.0 | 8.0 | 0.00 | 0.01 | 0.00 | 82 | 1019.3 |
| 20260506093046 | 79 | 102 | 0.0 | 7.0 | 0.00 | 0.01 | 0.00 | 83 | 1019.2 |
| 20260506091545 | 79 | 78 | 6.0 | 14.0 | 0.00 | 0.01 | 0.00 | 83 | 1019.2 |
| 20260506090056 | 79 | 65 | 3.0 | 10.0 | 0.00 | 0.01 | 0.00 | 83 | 1018.9 |
| 20260506084551 | 79 | 185 | 0.0 | 4.0 | 0.00 | 0.01 | 0.00 | 83 | 1018.8 |
| 20260506083043 | 79 | 84 | 4.0 | 11.0 | 0.00 | 0.01 | 0.00 | 83 | 1018.8 |
| 20260506081543 | 79 | 92 | 6.0 | 12.0 | 0.00 | 0.01 | 0.00 | 83 | 1018.8 |
| 20260506073037 | 79 | 37 | 2.0 | 9.0 | 0.00 | 0.01 | 0.00 | 83 | 1018.5 |
| 20260506071535 | 79 | 92 | 3.0 | 10.0 | 0.00 | 0.01 | 0.00 | 83 | 1018.7 |
| 20260506061531 | 80 | 139 | 1.0 | 13.0 | 0.00 | 0.01 | 0.00 | 83 | 1018.7 |